AirNav   Free SoundLink Mini II speaker
 
 380 users online  

53T Cannon Field Airport
Somerset, Texas, USA

GOING TO SOMERSET?


FAA INFORMATION EFFECTIVE 26 MARCH 2020

Location

FAA Identifier: 53T
Lat/Long: 29-12-57.8640N 098-32-58.0630W
29-12.964400N 098-32.967717W
29.2160733,-98.5494619
(estimated)
Elevation: 610 ft. / 186 m (estimated)
Variation: 07E (1985)
From city: 6 miles E of SOMERSET, TX
Time zone: UTC -5 (UTC -6 during Standard Time)
Zip code: 78264

Airport Operations

Airport use: Open to the public
Activation date: 09/1983
Control tower: no
ARTCC: HOUSTON CENTER
FSS: SAN ANGELO FLIGHT SERVICE STATION
NOTAMs facility: SJT (NOTAM-D service available)
Attendance: CONTINUOUS
FOR ARPT ATTENDANT CALL 210-842-0429.
Wind indicator: yes
Segmented circle: no

Airport Communications

CTAF/UNICOM: 123.0
WX ASOS at SSF (8 nm NE): PHONE 210-927-9391
WX AWOS-3 at PEZ (16 nm S): 118.575 (830-569-5749)
WX AWOS-3 at CVB (18 nm NW): 119.25 (830-931-0232)
WX ASOS at SAT (20 nm N): PHONE 210-805-5583

Nearby radio navigation aids

VOR radial/distance  VOR name  Freq  Var
SSFr236/(6.1)STINSON VOR108.4009E
RNDr212/22.8RANDOLPH VORTAC112.3005E
SATr182/26.1SAN ANTONIO VORTAC116.8008E

 
NDB name  Hdg/Dist  Freq  Var  ID
DEVINE070/20.935907EHHH .... .... ....
HONDO098/33.932908EHMA .... -- .-

Airport Services

Parking: hangars and tiedowns
Airframe service: MINOR
Powerplant service: MINOR

Runway Information

Runway 16/34

Dimensions: 2880 x 100 ft. / 878 x 30 m
ROLLING GRADIENT ENTIRE LENGTH OF RY NOT VISIBLE FM ENDS.
Surface: turf, in good condition
RY OCCASIONALLY ROUGH AND MAY FLOOD.
RUNWAY 16  RUNWAY 34
Traffic pattern: leftright
Displaced threshold: 200 ft.300 ft.
Obstructions: 4 ft. fence, 105 ft. right of centerline
RY 16 0:1 AT DSPLCD THR DUE TO 4 FT FENCE APPROX 105 FT R OF CNTRLN
49 ft. tree, 100 ft. left of centerline
RY 34 0:1 AT DSPLCD THR DUE TO +4 FT FENCE 51 FT R OF CNTRLN

Airport Ownership and Management from official FAA records

Ownership: Privately-owned
Owner: ALAMO LIAISON GROUP
2352 S LOOP 1604 W
SAN ANTONIO, TX 78264-3719
Phone 210-624-2226
Manager: RICHARD ROBERTS
2352 S LOOP 1604 W
SAN ANTONIO, TX 78264-3719
Phone 210-624-2226

Airport Operational Statistics

Aircraft based on the field: 13
Single engine airplanes: 13
    
Aircraft operations: avg 21/week *
91% local general aviation
9% transient general aviation
* for 12-month period ending 01 February 2017

Additional Remarks

WILD ANIMALS & MOWING EQUIP ON & INVOF ARPT.
+30 FT MARKED POWERLINE 500 FT ACROSS RY CNTRLN.
RYS 16 & 34 DISPLACED THLDS MARKED WITH WHITE PAINTED BARRELS.
RY 16/34 SOUTH HALF ROUGH EDGES.
RY 16 +4 FT FENCE 105 FT R PARALLEL TO RY; +6-10 FT TREES IN FENCE ROW 105 FT R OF CNTRLN.
RY 34 +4 FT FENCE 51 FT RIGHT PARALLEL TO RY.
FOR CD CTC SAN ANTONIO APCH AT 210-805-5516.

Instrument Procedures

There are no published instrument procedures at 53T.

Some nearby airports with instrument procedures:

KSSF - Stinson Municipal Airport (8 nm NE)
KSKF - Kelly Field Airport (10 nm N)
KPEZ - Pleasanton Municipal Airport (16 nm S)
KCVB - Castroville Municipal Airport (18 nm NW)
KSAT - San Antonio International Airport (20 nm N)
 
Loc | Ops | Rwys | IFR | FBO | Links
Com | Nav | Svcs | Stats | Notes
Area around 53T (Cannon Field Airport)
 
Road maps at: MapQuest Bing Google
 
Aerial photo
WARNING: Photo may not be current or correct
Aerial photo of 53T (Cannon Field Airport)
Photo taken 11-Jun-2010

Do you have a better or more recent aerial photo of Cannon Field Airport that you would like to share? If so, please send us your photo.

 
Sectional chart

 
Airport distance calculator
Flying to Cannon Field Airport? Find the distance to fly.

From to 53T

Sunrise and sunset
Times for 07-Apr-2020
 Local
(UTC-5)
 Zulu
(UTC)
Morning civil twilight06:5311:53
Sunrise07:1712:17
Sunset19:5500:55
Evening civil twilight20:1901:19

Current date and time
Zulu (UTC)  07-Apr-2020 10:43:13
Local (UTC-5)  07-Apr-2020 05:43:13
 
METAR
KSSF 
8nm NE 
071013Z AUTO 25004KT 1 1/4SM BR OVC002 19/19 A2997 RMK AO2 T01940194
KSKF 
9nm N 
071021Z AUTO 00000KT 1SM R16/4000VP6000FT BR OVC002 21/21 A2997 RMK AO2 SLP143 $
KPEZ 
16nm S 
071015Z AUTO 00000KT 1/4SM FG OVC002 20/20 A2998 RMK AO2 T02030199
KCVB 
17nm NW 
071015Z AUTO 00000KT 1/4SM +RA OVC003 21/21 A3001 RMK AO2 T02050205
KSAT 
20nm N 
070951Z 26004KT 1 1/2SM R13R/6000VP6000FT BR OVC002 21/20 A2999 RMK AO2 SLP141 T02060200
TAF
KSSF 
8nm NE 
070633Z 0707/0806 20004KT 1/2SM FG VV002 FM071400 22005KT 6SM BR OVC007 FM071700 22008KT P6SM BKN015 FM071800 18008KT P6SM BKN100
KSKF 
9nm N 
071000Z 0710/0816 16006KT 1600 BR BKN004 QNH2994INS TEMPO 0710/0713 0400 FG OVC001 BECMG 0712/0713 17006KT 4800 BR OVC007 QNH2992INS BECMG 0715/0716 20008KT 9999 NSW SCT020 BKN080 QNH2990INS BECMG 0720/0721 18010KT 9999 VCSH BKN030 QNH2986INS BECMG 0802/0803 VRB06KT 9000 BR BKN015 QNH2988INS TX31/0720Z TN21/0711Z
KSAT 
20nm N 
070632Z 0707/0812 18005KT 1/2SM FG OVC003 FM071400 20005KT 6SM BR OVC007 FM071700 22008KT P6SM BKN015 FM071800 19008KT P6SM BKN100
NOTAMs
Click for the latest NOTAMs
NOTAMs are issued by the DoD/FAA and will open in a separate window not controlled by AirNav.

 

 
 

Would you like to see your business listed on this page?

 If your business provides an interesting product or service to pilots, flight crews, aircraft, or users of the Cannon Field Airport, you should consider listing it here.  To start the listing process, click on the button below
 
Add a business
 

Other Pages about Cannon Field Airport

Update a link
 
Copyright © AirNav, LLC. All rights reserved. Privacy Policy  Contact